User: anonymous   Login
Location: Norwich
(52.6280°N, 1.3030°E)
Time: 14:15:37
(UTC+01:00)
Language:

APEX - Orbit

View from above orbital plane
View from above orbital plane
View from above satellite
View from above satellite

Ground track
Ground track

The orbit data is extracted from the following two-line orbital elements,

1 23191U 94046A   16237.20385487  .00009202  00000-0  30921-3 0  9996
2 23191  69.9264 185.0192 0627660 297.3447  56.5128 14.32869844 73931
Epoch (UTC): 24 August 2016 04:53:33
Eccentricity: 0.0627660
inclination: 69.9264°
perigee height: 333 km
apogee height: 1231 km
right ascension of ascending node: 185.0192°
argument of perigee: 297.3447°
revolutions per day: 14.32869844
mean anomaly at epoch: 56.5128°
orbit number at epoch: 7393

The dashed part of the orbit path shows where the satellite is in the earth's shadow,  

DLR